Previsão horária em Aliganj

Hoje, 23 Novembro, Segunda-feira

Tempo Temperatura Precipitação Vento Pressão Humidade
00:00 +16°C° 0 mm 2 m/s 747 mmHg 23%
01:00 +16°C° 0 mm 2 m/s 747 mmHg 24%
02:00 +16°C° 0 mm 2 m/s 747 mmHg 25%
03:00 +15°C° 0 mm 1 m/s 747 mmHg 26%
04:00 +15°C° 0 mm 1 m/s 747 mmHg 27%
05:00 +14°C° 0 mm 1 m/s 747 mmHg 28%
06:00 +15°C° 0 mm 1 m/s 748 mmHg 27%
07:00 +16°C° 0 mm 1 m/s 749 mmHg 26%
08:00 +19°C° 0 mm 1 m/s 750 mmHg 25%
09:00 +19°C° 0 mm 0 m/s 749 mmHg 22%
10:00 +21°C° 0 mm 0 m/s 749 mmHg 19%
11:00 +23°C° 0 mm 0 m/s 750 mmHg 17%
12:00 +24°C° 0 mm 0 m/s 749 mmHg 15%
13:00 +24°C° 0 mm 0 m/s 748 mmHg 14%
14:00 +27°C° 0 mm 1 m/s 747 mmHg 13%
15:00 +25°C° 0 mm 1 m/s 747 mmHg 15%
16:00 +24°C° 0 mm 1 m/s 747 mmHg 16%
17:00 +22°C° 0 mm 1 m/s 746 mmHg 18%
18:00 +21°C° 0 mm 1 m/s 747 mmHg 19%
19:00 +21°C° 0 mm 1 m/s 747 mmHg 19%
20:00 +20°C° 0 mm 1 m/s 748 mmHg 20%
21:00 +17°C° 0 mm 0 m/s 748 mmHg 21%
22:00 +17°C° 0 mm 0 m/s 748 mmHg 21%
23:00 +17°C° 0 mm 0 m/s 748 mmHg 22%

Amanhã, 24 Novembro, Terça-feira

Tempo Temperatura Precipitação Vento Pressão Humidade
00:00 +16°C° 0 mm 0 m/s 748 mmHg 22%
01:00 +18°C° 0 mm 1 m/s 747 mmHg 23%
02:00 +16°C° 0 mm 1 m/s 747 mmHg 24%
03:00 +15°C° 0 mm 0 m/s 747 mmHg 25%
04:00 +15°C° 0 mm 0 m/s 747 mmHg 26%
05:00 +14°C° 0 mm 0 m/s 747 mmHg 26%
06:00 +15°C° 0 mm 0 m/s 748 mmHg 26%
07:00 +17°C° 0 mm 0 m/s 748 mmHg 26%
08:00 +20°C° 0 mm 1 m/s 749 mmHg 25%
09:00 +20°C° 0 mm 0 m/s 749 mmHg 23%
10:00 +22°C° 0 mm 0 m/s 749 mmHg 20%
11:00 +24°C° 0 mm 0 m/s 749 mmHg 18%
12:00 +24°C° 0 mm 0 m/s 748 mmHg 16%
13:00 +25°C° 0 mm 0 m/s 747 mmHg 15%
14:00 +25°C° 0 mm 0 m/s 746 mmHg 14%
15:00 +24°C° 0 mm 0 m/s 746 mmHg 16%
16:00 +22°C° 0 mm 0 m/s 746 mmHg 18%
17:00 +21°C° 0 mm 0 m/s 746 mmHg 20%
18:00 +20°C° 0 mm 0 m/s 746 mmHg 20%
19:00 +19°C° 0 mm 0 m/s 747 mmHg 21%
20:00 +19°C° 0 mm 0 m/s 747 mmHg 22%
21:00 +19°C° 0 mm 0 m/s 747 mmHg 23%
22:00 +18°C° 0 mm 0 m/s 747 mmHg 24%
23:00 +20°C° 0 mm 1 m/s 747 mmHg 25%

Depois de amanhã, 25 Novembro, Quarta-feira

Tempo Temperatura Precipitação Vento Pressão Humidade
00:00 +19°C° 0 mm 1 m/s 747 mmHg 26%
01:00 +19°C° 0 mm 1 m/s 747 mmHg 27%
02:00 +19°C° 0 mm 1 m/s 746 mmHg 28%
03:00 +18°C° 0 mm 1 m/s 746 mmHg 30%
04:00 +18°C° 0 mm 1 m/s 746 mmHg 31%
05:00 +16°C° 0 mm 1 m/s 746 mmHg 32%
06:00 +18°C° 0 mm 1 m/s 747 mmHg 32%
07:00 +19°C° 0 mm 1 m/s 748 mmHg 31%
08:00 +20°C° 0 mm 1 m/s 749 mmHg 30%
09:00 +22°C° 0 mm 1 m/s 748 mmHg 27%
10:00 +24°C° 0 mm 2 m/s 748 mmHg 24%
11:00 +26°C° 0 mm 2 m/s 748 mmHg 21%
12:00 +26°C° 0 mm 2 m/s 747 mmHg 19%
13:00 +27°C° 0 mm 1 m/s 747 mmHg 18%
14:00 +28°C° 0 mm 1 m/s 746 mmHg 17%
15:00 +26°C° 0 mm 1 m/s 746 mmHg 19%
16:00 +25°C° 0 mm 1 m/s 746 mmHg 21%
17:00 +23°C° 0 mm 1 m/s 746 mmHg 23%
18:00 +22°C° 0 mm 1 m/s 747 mmHg 24%
19:00 +20°C° 0 mm 0 m/s 747 mmHg 24%
20:00 +19°C° 0 mm 0 m/s 748 mmHg 25%
21:00 +19°C° 0 mm 0 m/s 748 mmHg 26%
22:00 +20°C° 0 mm 1 m/s 748 mmHg 26%
23:00 +20°C° 0 mm 1 m/s 748 mmHg 27%

26 Novembro, Quinta-feira

Tempo Temperatura Precipitação Vento Pressão Humidade
00:00 +20°C° 0 mm 1 m/s 747 mmHg 28%
01:00 +19°C° 0 mm 1 m/s 747 mmHg 29%
02:00 +18°C° 0 mm 2 m/s 747 mmHg 30%
03:00 +17°C° 0 mm 2 m/s 747 mmHg 32%
04:00 +17°C° 0 mm 2 m/s 747 mmHg 34%
05:00 +16°C° 0 mm 2 m/s 747 mmHg 36%
06:00 +17°C° 0 mm 2 m/s 748 mmHg 36%
07:00 +19°C° 0 mm 1 m/s 748 mmHg 35%
08:00 +20°C° 0 mm 1 m/s 749 mmHg 34%
09:00 +23°C° 0 mm 1 m/s 749 mmHg 30%
10:00 +25°C° 0 mm 1 m/s 749 mmHg 26%
11:00 +27°C° 0 mm 2 m/s 749 mmHg 22%
12:00 +28°C° 0 mm 2 m/s 749 mmHg 21%
13:00 +29°C° 0 mm 2 m/s 748 mmHg 20%
14:00 +30°C° 0 mm 3 m/s 747 mmHg 19%
15:00 +28°C° 0 mm 3 m/s 747 mmHg 22%
16:00 +27°C° 0 mm 2 m/s 747 mmHg 26%
17:00 +25°C° 0 mm 2 m/s 747 mmHg 29%
18:00 +24°C° 0 mm 2 m/s 747 mmHg 31%
19:00 +24°C° 0 mm 3 m/s 748 mmHg 32%
20:00 +22°C° 0 mm 3 m/s 748 mmHg 34%
21:00 +21°C° 0 mm 3 m/s 748 mmHg 35%
22:00 +20°C° 0 mm 3 m/s 748 mmHg 36%
23:00 +20°C° 0 mm 3 m/s 748 mmHg 37%

27 Novembro, Sexta-feira

Tempo Temperatura Precipitação Vento Pressão Humidade
00:00 +19°C° 0 mm 3 m/s 748 mmHg 39%
01:00 +19°C° 0 mm 3 m/s 748 mmHg 41%
02:00 +18°C° 0 mm 3 m/s 748 mmHg 43%
03:00 +17°C° 0 mm 3 m/s 748 mmHg 44%
04:00 +17°C° 0 mm 3 m/s 748 mmHg 46%
05:00 +16°C° 0 mm 3 m/s 748 mmHg 47%
06:00 +17°C° 0 mm 3 m/s 749 mmHg 46%
07:00 +18°C° 0 mm 3 m/s 749 mmHg 45%
08:00 +19°C° 0 mm 4 m/s 750 mmHg 44%
09:00 +21°C° 0 mm 4 m/s 750 mmHg 37%
10:00 +25°C° 0 mm 4 m/s 750 mmHg 31%
11:00 +27°C° 0 mm 4 m/s 750 mmHg 25%
12:00 +27°C° 0 mm 4 m/s 749 mmHg 23%
13:00 +28°C° 0 mm 4 m/s 749 mmHg 21%
14:00 +29°C° 0 mm 4 m/s 748 mmHg 19%
15:00 +27°C° 0 mm 3 m/s 748 mmHg 22%
16:00 +25°C° 0 mm 3 m/s 747 mmHg 25%
17:00 +24°C° 0 mm 3 m/s 747 mmHg 29%
18:00 +22°C° 0 mm 3 m/s 747 mmHg 32%
19:00 +21°C° 0 mm 3 m/s 748 mmHg 35%
20:00 +20°C° 0 mm 3 m/s 748 mmHg 38%
21:00 +19°C° 0 mm 3 m/s 748 mmHg 40%
22:00 +19°C° 0 mm 3 m/s 748 mmHg 41%
23:00 +18°C° 0 mm 3 m/s 748 mmHg 43%

28 Novembro, Sábado

Tempo Temperatura Precipitação Vento Pressão Humidade
00:00 +18°C° 0 mm 3 m/s 748 mmHg 44%
01:00 +17°C° 0 mm 3 m/s 748 mmHg 45%
02:00 +17°C° 0 mm 2 m/s 747 mmHg 46%
03:00 +16°C° 0 mm 2 m/s 747 mmHg 46%
04:00 +16°C° 0 mm 2 m/s 748 mmHg 47%
05:00 +16°C° 0 mm 2 m/s 748 mmHg 47%
06:00 +16°C° 0 mm 2 m/s 748 mmHg 45%
07:00 +17°C° 0 mm 2 m/s 749 mmHg 43%
08:00 +18°C° 0 mm 2 m/s 749 mmHg 41%
09:00 +20°C° 0 mm 2 m/s 750 mmHg 35%
10:00 +23°C° 0 mm 2 m/s 750 mmHg 30%
11:00 +26°C° 0 mm 3 m/s 750 mmHg 25%
12:00 +27°C° 0 mm 3 m/s 749 mmHg 23%
13:00 +28°C° 0 mm 2 m/s 748 mmHg 21%
14:00 +28°C° 0 mm 2 m/s 748 mmHg 19%
15:00 +27°C° 0 mm 2 m/s 748 mmHg 22%
16:00 +25°C° 0 mm 2 m/s 748 mmHg 24%
17:00 +24°C° 0 mm 2 m/s 747 mmHg 26%
18:00 +23°C° 0 mm 2 m/s 748 mmHg 27%
19:00 +22°C° 0 mm 1 m/s 748 mmHg 28%
20:00 +21°C° 0 mm 1 m/s 749 mmHg 29%
21:00 +20°C° 0 mm 1 m/s 749 mmHg 30%
22:00 +20°C° 0 mm 1 m/s 749 mmHg 31%
23:00 +19°C° 0 mm 1 m/s 748 mmHg 32%
Mostrar mais